G0AMO Weather Reports


Display with metric or nautical units.
time (UTC)temp
F
wind
direction
speed
MPH
gust
MPH
rain 1hr
in
rain 24hr
in
rain mn
in
humidity
%
barometer
mb
20260510153004 54 32 14.0 25.0 0.00 0.00 0.00 67 1016.3
20260510152505 54 44 14.0 21.0 0.00 0.00 0.00 67 1016.3
20260510151005 54 53 13.0 28.0 0.00 0.00 0.00 69 1016.6
20260510150004 55 30 10.0 25.0 0.00 0.00 0.00 68 1016.6
20260510145504 55 106 10.0 25.0 0.00 0.00 0.00 68 1016.6
20260510145004 55 57 14.0 21.0 0.00 0.00 0.00 68 1016.6
20260510144004 54 40 5.0 15.0 0.00 0.00 0.00 69 1016.3
20260510143503 55 31 9.0 15.0 0.00 0.00 0.00 68 1016.3
20260510143004 54 58 7.0 8.0 0.00 0.00 0.00 68 1016.6
20260510142503 54 83 6.0 18.0 0.00 0.00 0.00 68 1016.6
20260510142005 55 68 10.0 18.0 0.00 0.00 0.00 69 1017.3
20260510140005 54 30 8.0 21.0 0.00 0.00 0.00 69 1017.3
20260510135503 54 35 8.0 23.0 0.00 0.00 0.00 69 1017.3
20260510135004 54 129 12.0 23.0 0.00 0.00 0.00 70 1017.3
20260510134503 54 85 7.0 21.0 0.00 0.00 0.00 70 1016.7
20260510133004 55 42 8.0 30.0 0.00 0.00 0.00 69 1017.4
20260510132504 55 46 7.0 25.0 0.00 0.00 0.00 69 1016.9
20260510131504 55 58 5.0 21.0 0.00 0.00 0.00 68 1016.9
20260510131005 56 57 14.0 23.0 0.00 0.00 0.00 68 1017.3
20260510130503 56 50 10.0 23.0 0.00 0.00 0.00 68 1017.0
20260510130004 55 45 10.0 21.0 0.00 0.00 0.00 69 1016.8
20260510125004 55 55 9.0 23.0 0.00 0.00 0.00 70 1017.5
20260510124504 55 27 11.0 23.0 0.00 0.00 0.00 70 1017.0
20260510124004 56 79 9.0 23.0 0.00 0.00 0.00 70 1017.6
20260510123504 55 52 11.0 25.0 0.00 0.00 0.00 70 1017.6
20260510123004 55 23 10.0 25.0 0.00 0.00 0.00 71 1017.6
20260510122503 54 22 9.0 30.0 0.00 0.00 0.00 72 1016.9
20260510122005 54 31 13.0 30.0 0.00 0.00 0.00 72 1017.6
20260510121504 55 24 11.0 28.0 0.00 0.00 0.00 71 1016.9
20260510121003 55 37 12.0 28.0 0.00 0.00 0.00 71 1017.6
20260510120004 56 21 14.0 23.0 0.00 0.00 0.00 69 1017.6
20260510115505 56 56 6.0 13.0 0.00 0.00 0.00 69 1016.9
20260510115004 56 49 9.0 25.0 0.00 0.00 0.00 69 1016.9
20260510114504 57 45 8.0 25.0 0.00 0.00 0.00 68 1017.3
20260510114005 56 93 9.0 21.0 0.00 0.00 0.00 66 1017.6
20260510113505 56 33 12.0 23.0 0.00 0.00 0.00 66 1017.3
20260510113003 56 28 10.0 23.0 0.00 0.00 0.00 66 1017.9
20260510111505 56 18 13.0 25.0 0.00 0.00 0.00 67 1017.6
20260510111005 56 37 10.0 35.0 0.00 0.00 0.00 68 1017.9
20260510110504 56 89 20.0 35.0 0.00 0.00 0.00 67 1017.9
20260510110005 56 53 5.0 28.0 0.00 0.00 0.00 68 1017.9
20260510105504 55 32 14.0 28.0 0.00 0.00 0.00 69 1017.9
20260510104004 56 66 15.0 35.0 0.00 0.00 0.00 65 1017.9
20260510103505 56 61 18.0 35.0 0.00 0.00 0.00 64 1018.3
20260510101504 56 127 7.0 15.0 0.00 0.00 0.00 66 1017.9
20260510100004 56 38 16.0 35.0 0.00 0.00 0.00 65 1017.9
20260510095504 56 69 7.0 15.0 0.00 0.00 0.00 65 1017.9
20260510095004 56 66 13.0 15.0 0.00 0.00 0.00 66 1018.3
20260510094003 55 62 14.0 25.0 0.00 0.00 0.00 67 1018.3
20260510093504 55 26 14.0 25.0 0.00 0.00 0.00 67 1018.3
20260510093004 55 19 10.0 23.0 0.00 0.00 0.00 67 1017.9
20260510092504 56 118 15.0 23.0 0.00 0.00 0.00 67 1018.3
20260510092004 55 90 9.0 28.0 0.00 0.00 0.00 69 1018.3
20260510091504 55 43 14.0 37.0 0.00 0.00 0.00 69 1018.3
20260510091004 54 50 7.0 37.0 0.00 0.00 0.00 70 1018.6
20260510090504 54 74 15.0 37.0 0.00 0.00 0.00 69 1018.3
20260510090004 54 62 16.0 28.0 0.00 0.00 0.00 70 1018.6
20260510085504 54 75 8.0 28.0 0.00 0.00 0.00 70 1018.6
20260510085003 54 33 8.0 18.0 0.00 0.00 0.00 71 1018.6
20260510084504 54 14 10.0 18.0 0.00 0.00 0.00 71 1018.6
20260510084004 53 29 13.0 18.0 0.00 0.00 0.00 72 1018.3
20260510083504 52 101 10.0 25.0 0.00 0.00 0.00 74 1018.6
20260510083005 52 89 13.0 25.0 0.00 0.00 0.00 74 1019.0
20260510082504 52 82 15.0 25.0 0.00 0.00 0.00 74 1018.6
20260510082005 53 57 15.0 25.0 0.00 0.00 0.00 74 1019.0
20260510081005 52 48 15.0 23.0 0.00 0.00 0.00 74 1019.3
20260510080004 51 56 13.0 32.0 0.00 0.00 0.00 77 1019.0
20260510074004 51 65 21.0 30.0 0.00 0.00 0.00 78 1019.0
20260510073004 50 110 13.0 25.0 0.00 0.00 0.00 80 1019.0
20260510072504 50 123 14.0 25.0 0.00 0.00 0.00 80 1019.0
20260510072003 50 112 5.0 21.0 0.00 0.00 0.00 82 1018.6
20260510071503 49 115 7.0 9.0 0.00 0.00 0.00 83 1018.6
20260510071006 49 47 6.0 9.0 0.00 0.00 0.00 84 1018.0
20260510070504 49 73 8.0 21.0 0.00 0.00 0.00 84 1018.5
20260510070004 48 114 9.0 21.0 0.00 0.00 0.00 85 1018.6
20260510065505 48 38 7.0 18.0 0.00 0.00 0.00 85 1018.6
20260510065004 48 47 7.0 23.0 0.00 0.00 0.00 85 1018.4
20260510064505 48 61 6.0 23.0 0.00 0.00 0.00 86 1018.5
20260510064005 48 47 7.0 16.0 0.00 0.00 0.00 86 1017.9
20260510063505 48 36 5.0 14.0 0.00 0.00 0.00 86 1018.0
20260510062504 48 126 6.0 14.0 0.00 0.00 0.00 86 1018.6
20260510062004 48 66 6.0 10.0 0.00 0.00 0.00 86 1018.2
20260510061503 48 35 8.0 16.0 0.00 0.00 0.00 86 1017.9
20260510061005 48 1 6.0 16.0 0.00 0.00 0.00 86 1018.6
20260510060503 48 1 7.0 18.0 0.00 0.00 0.00 86 1018.6
20260510060005 48 0 8.0 18.0 0.00 0.00 0.00 87 1018.4
20260510055505 48 71 6.0 16.0 0.00 0.00 0.00 87 1017.4
20260510055004 48 79 5.0 16.0 0.00 0.00 0.00 87 1018.3
20260510054505 48 62 6.0 16.0 0.00 0.00 0.00 87 1018.6
20260510054004 48 54 6.0 16.0 0.00 0.00 0.00 88 1017.3
20260510053504 48 37 6.0 21.0 0.00 0.00 0.00 88 1018.6
20260510053004 47 35 9.0 21.0 0.00 0.00 0.00 88 1018.3
20260510052504 47 66 10.0 18.0 0.00 0.00 0.00 88 1018.6
20260510052004 47 70 8.0 14.0 0.00 0.00 0.00 88 1017.3
20260510051505 47 22 7.0 14.0 0.00 0.00 0.00 88 1017.6
20260510051004 47 33 10.0 14.0 0.00 0.00 0.00 88 1018.6
20260510050004 47 16 6.0 13.0 0.00 0.00 0.00 88 1017.3
20260510045505 47 19 5.0 23.0 0.00 0.00 0.00 88 1017.6
20260510045003 47 20 9.0 23.0 0.00 0.00 0.00 88 1018.6
20260510044504 47 37 6.0 16.0 0.00 0.00 0.00 88 1018.3
20260510044003 47 90 5.0 21.0 0.00 0.00 0.00 88 1017.3
20260510043504 47 50 7.0 21.0 0.00 0.00 0.00 88 1018.6
20260510043004 47 34 5.0 7.0 0.00 0.00 0.00 88 1017.3
20260510042504 47 0 3.0 7.0 0.00 0.00 0.00 88 1017.3
20260510041504 48 32 9.0 21.0 0.00 0.00 0.00 88 1018.3
20260510041003 48 35 13.0 21.0 0.00 0.00 0.00 88 1018.3
20260510040504 48 26 8.0 13.0 0.00 0.00 0.00 88 1017.3
20260510040005 48 25 6.0 16.0 0.00 0.00 0.00 87 1017.3
20260510035504 48 36 10.0 16.0 0.00 0.00 0.00 87 1018.6
20260510035006 48 13 7.0 10.0 0.00 0.00 0.00 87 1017.3
20260510034004 48 20 7.0 23.0 0.00 0.00 0.00 87 1017.6
20260510033504 48 24 10.0 23.0 0.00 0.00 0.00 87 1018.6
20260510033003 48 43 16.0 23.0 0.00 0.00 0.00 87 1018.6
20260510032504 48 15 7.0 23.0 0.00 0.00 0.00 87 1017.6
20260510032004 48 16 8.0 23.0 0.00 0.00 0.00 87 1019.0
20260510031504 48 82 7.0 25.0 0.00 0.00 0.00 87 1017.6
20260510030504 48 359 13.0 25.0 0.00 0.00 0.00 87 1019.0
20260510030004 48 44 14.0 21.0 0.00 0.00 0.00 87 1018.6
20260510025503 48 32 8.0 21.0 0.00 0.00 0.00 87 1017.9
20260510024504 48 339 13.0 25.0 0.00 0.00 0.00 86 1019.0
20260510023505 48 21 7.0 28.0 0.00 0.00 0.00 85 1017.6
20260510023005 48 46 20.0 28.0 0.00 0.00 0.00 85 1018.6
20260510022504 48 46 12.0 30.0 0.00 0.00 0.00 85 1018.6
20260510022005 49 61 15.0 30.0 0.00 0.00 0.00 85 1018.6
20260510021504 49 26 15.0 21.0 0.00 0.00 0.00 85 1018.6
20260510021005 49 33 7.0 23.0 0.00 0.00 0.00 85 1017.6
20260510020504 49 355 8.0 23.0 0.00 0.00 0.00 86 1018.6
20260510020004 49 48 9.0 18.0 0.00 0.00 0.00 86 1018.3
20260510015505 49 51 8.0 17.0 0.00 0.00 0.00 86 1017.6
20260510014504 49 38 12.0 18.0 0.00 0.00 0.00 85 1018.6
20260510014004 49 24 13.0 18.0 0.00 0.00 0.00 84 1018.6
20260510013004 49 42 7.0 16.0 0.00 0.00 0.00 83 1017.6
20260510012504 49 44 9.0 16.0 0.00 0.00 0.00 82 1019.0
20260510011504 50 32 9.0 23.0 0.00 0.00 0.00 78 1018.6
20260510011004 50 42 13.0 23.0 0.00 0.00 0.00 77 1018.6
20260510010504 50 340 16.0 23.0 0.00 0.00 0.00 75 1018.3
20260510010004 50 23 10.0 15.0 0.00 0.00 0.00 74 1017.6
20260510005504 51 38 6.0 21.0 0.00 0.00 0.00 73 1017.6
20260510005004 51 34 8.0 21.0 0.00 0.00 0.00 72 1018.6
20260510004504 51 13 12.0 16.0 0.00 0.00 0.00 71 1018.6
20260510004004 51 30 3.0 23.0 0.00 0.00 0.00 69 1017.9
20260510003505 51 46 13.0 23.0 0.00 0.00 0.00 67 1018.6
20260510003005 51 17 12.0 16.0 0.00 0.00 0.00 66 1018.6
20260510002503 52 33 12.0 16.0 0.00 0.00 0.00 65 1017.6
20260510002004 52 30 2.0 16.0 0.00 0.00 0.00 65 1019.0
20260510001504 52 19 3.0 16.0 0.00 0.00 0.00 64 1019.0
20260510001004 53 51 7.0 8.0 0.00 0.00 0.00 64 1017.9
20260510000505 53 53 6.0 8.0 0.00 0.00 0.00 64 1017.9
20260510000004 54 15 3.0 14.0 0.00 0.00 0.00 63 1017.9
20260509235504 54 82 8.0 14.0 0.00 0.00 0.00 61 1018.6
20260509235004 54 60 3.0 14.0 0.00 0.00 0.00 59 1018.6
20260509234505 54 63 6.0 14.0 0.00 0.00 0.00 59 1018.3
20260509234004 55 25 5.0 12.0 0.00 0.00 0.00 58 1017.6
20260509233505 55 68 7.0 13.0 0.00 0.00 0.00 57 1019.0
20260509233004 55 53 8.0 13.0 0.00 0.00 0.00 57 1017.6
20260509232504 55 61 3.0 5.0 0.00 0.00 0.00 57 1017.6
20260509232005 55 64 3.0 5.0 0.00 0.00 0.00 58 1017.6
20260509231004 55 61 12.0 18.0 0.00 0.00 0.00 58 1018.3
20260509230505 55 39 5.0 18.0 0.00 0.00 0.00 60 1018.6
20260509225005 55 79 1.0 7.0 0.00 0.00 0.00 59 1018.3
20260509224504 55 94 1.0 7.0 0.00 0.00 0.00 60 1018.4
20260509224004 55 85 4.0 12.0 0.00 0.00 0.00 59 1018.3
20260509223504 55 81 3.0 12.0 0.00 0.00 0.00 59 1017.8
20260509223004 55 59 6.0 12.0 0.00 0.00 0.00 59 1017.7
20260509222504 55 52 3.0 12.0 0.00 0.00 0.00 58 1017.9
20260509221505 55 84 3.0 8.0 0.00 0.00 0.00 59 1017.3
20260509221005 55 69 2.0 7.0 0.00 0.00 0.00 60 1017.4
20260509220506 55 55 2.0 7.0 0.00 0.00 0.00 61 1017.8
20260509220004 55 32 2.0 5.0 0.00 0.00 0.00 60 1017.4
20260509215003 56 32 2.0 7.0 0.00 0.00 0.00 58 1017.7
20260509214505 56 81 2.0 7.0 0.00 0.00 0.00 58 1018.3
20260509214004 56 82 1.0 2.0 0.00 0.00 0.00 57 1017.3
20260509213504 57 100 1.0 7.0 0.00 0.00 0.00 56 1017.6
20260509213004 57 63 3.0 12.0 0.00 0.00 0.00 56 1018.3
20260509212505 57 59 3.0 12.0 0.00 0.00 0.00 55 1017.9
20260509211504 57 48 5.0 14.0 0.00 0.00 0.00 55 1018.3
20260509210004 58 105 3.0 12.0 0.00 0.00 0.00 55 1017.9
20260509205504 58 46 5.0 10.0 0.00 0.00 0.00 54 1017.6
20260509205005 58 78 5.0 12.0 0.00 0.00 0.00 54 1017.3
20260509204004 59 42 2.0 9.0 0.00 0.00 0.00 54 1017.6
20260509203504 59 35 5.0 9.0 0.00 0.00 0.00 53 1017.3
20260509203004 60 56 3.0 5.0 0.00 0.00 0.00 52 1017.6
20260509202504 60 78 3.0 5.0 0.00 0.00 0.00 53 1017.6
20260509202004 60 74 0.0 7.0 0.00 0.00 0.00 53 1016.9
20260509201504 60 50 5.0 7.0 0.00 0.00 0.00 52 1017.3
20260509201004 61 66 2.0 5.0 0.00 0.00 0.00 52 1016.6
20260509200505 61 86 3.0 5.0 0.00 0.00 0.00 52 1016.6
20260509200005 62 56 2.0 12.0 0.00 0.00 0.00 51 1016.6
20260509195505 62 96 2.0 12.0 0.00 0.00 0.00 50 1017.3
20260509195004 62 102 3.0 12.0 0.00 0.00 0.00 50 1017.3
20260509194504 62 74 3.0 9.0 0.00 0.00 0.00 51 1016.6
20260509194004 63 60 6.0 9.0 0.00 0.00 0.00 51 1017.3
20260509193503 63 98 8.0 9.0 0.00 0.00 0.00 50 1016.9
20260509193004 63 44 2.0 12.0 0.00 0.00 0.00 51 1016.3
20260509192504 63 73 7.0 12.0 0.00 0.00 0.00 51 1016.6
20260509192004 64 99 2.0 3.0 0.00 0.00 0.00 51 1016.3
20260509191504 64 121 2.0 3.0 0.00 0.00 0.00 50 1016.3
20260509190505 64 119 3.0 9.0 0.00 0.00 0.00 51 1016.6
20260509190004 64 96 0.0 5.0 0.00 0.00 0.00 51 1016.9
20260509184504 65 34 3.0 14.0 0.00 0.00 0.00 49 1016.3
20260509183504 65 26 5.0 7.0 0.00 0.00 0.00 48 1016.6
20260509183004 65 47 5.0 8.0 0.00 0.00 0.00 48 1016.3
20260509182504 66 32 6.0 18.0 0.00 0.00 0.00 47 1015.9
20260509182005 66 87 5.0 18.0 0.00 0.00 0.00 46 1016.3
20260509181004 67 52 8.0 12.0 0.00 0.00 0.00 46 1016.3
20260509180504 67 102 6.0 12.0 0.00 0.00 0.00 47 1016.3
20260509180006 67 79 2.0 14.0 0.00 0.00 0.00 46 1015.9
20260509175004 67 102 5.0 18.0 0.00 0.00 0.00 46 1015.9
20260509174504 67 59 5.0 14.0 0.00 0.00 0.00 46 1016.3
20260509174004 67 57 3.0 5.0 0.00 0.00 0.00 46 1015.9
20260509173503 67 32 5.0 10.0 0.00 0.00 0.00 46 1015.9
20260509173005 68 43 6.0 10.0 0.00 0.00 0.00 45 1015.9
20260509172004 68 83 6.0 12.0 0.00 0.00 0.00 46 1016.3
20260509171505 68 15 5.0 12.0 0.00 0.00 0.00 45 1015.9
20260509171004 68 67 5.0 14.0 0.00 0.00 0.00 45 1015.9
20260509170505 68 105 8.0 14.0 0.00 0.00 0.00 43 1016.3
20260509170004 68 42 6.0 14.0 0.00 0.00 0.00 44 1015.9
20260509165504 68 40 10.0 16.0 0.00 0.00 0.00 45 1015.9
20260509165004 68 81 8.0 16.0 0.00 0.00 0.00 45 1016.3
20260509164504 69 67 6.0 12.0 0.00 0.00 0.00 45 1016.3
20260509164004 69 106 5.0 9.0 0.00 0.00 0.00 44 1015.9
20260509163503 69 32 5.0 9.0 0.00 0.00 0.00 45 1016.3
20260509163005 68 39 7.0 9.0 0.00 0.00 0.00 44 1016.3
20260509162504 69 58 3.0 14.0 0.00 0.00 0.00 45 1015.9
20260509162003 68 40 6.0 14.0 0.00 0.00 0.00 45 1016.3
20260509161503 68 46 2.0 12.0 0.00 0.00 0.00 46 1016.3
20260509160505 69 90 10.0 14.0 0.00 0.00 0.00 44 1016.3
20260509160004 69 92 2.0 16.0 0.00 0.00 0.00 44 1016.3
20260509155504 69 38 8.0 16.0 0.00 0.00 0.00 43 1016.3
20260509154505 68 76 5.0 7.0 0.00 0.00 0.00 43 1015.9
20260509153503 69 28 6.0 23.0 0.00 0.00 0.00 44 1016.6